Overview Statistics Trail Chart Weather Telemetry Raw packets
 

This is the latest recevied weather packets stored in our database for station/object WI0K. If no packets are shown the sender has not sent any weather packets the latest 10 day(s).

<< 39 40 41 42 43 44 45 >>
Time Temp. Humidity Pressure Rain* Wind** Luminosity Snow
1788399879 24.44° C 38% 1016.6 hPa 0 mm - 0 W/m² -
1788399578 25° C 37% 1016.6 hPa 0 mm - 1 W/m² -
1788399277 25° C 37% 1016.4 hPa 0 mm - 2 W/m² -
1788398977 25.56° C 36% 1016.5 hPa 0 mm - 3 W/m² -
1788398676 26.11° C 36% 1016.5 hPa 0 mm - 5 W/m² -
1788398375 26.67° C 35% 1016.5 hPa 0 mm - 6 W/m² -
1788398074 27.22° C 32% 1016.3 hPa 0 mm - 10 W/m² -
1788397774 27.78° C 32% 1016.4 hPa 0 mm - 12 W/m² -
1788397473 27.78° C 31% 1016.3 hPa 0 mm - 15 W/m² -
1788397172 28.33° C 30% 1016.2 hPa 0 mm - 19 W/m² -
1788396871 28.33° C 30% 1016.1 hPa 0 mm - 22 W/m² -
1788396571 28.89° C 29% 1015.9 hPa 0 mm - 25 W/m² -
1788396270 28.89° C 30% 1015.9 hPa 0 mm - 29 W/m² -
1788395969 28.89° C 29% 1015.8 hPa 0 mm - 32 W/m² -
1788395668 28.89° C 29% 1015.8 hPa 0 mm - 32 W/m² -
1788395367 28.89° C 29% 1015.8 hPa 0 mm - 34 W/m² -
1788395066 29.44° C 29% 1015.9 hPa 0 mm - 39 W/m² -
1788394765 29.44° C 29% 1015.8 hPa 0 mm - 39 W/m² -
1788394465 30° C 28% 1015.8 hPa 0 mm - 42 W/m² -
1788394164 30° C 28% 1015.8 hPa 0 mm - 54 W/m² -
1788393863 30.56° C 27% 1015.7 hPa 0 mm - 97 W/m² -
1788393561 30.56° C 26% 1015.7 hPa 0 mm - 110 W/m² -
1788393261 30.56° C 27% 1015.7 hPa 0 mm - 118 W/m² -
1788392960 30° C 27% 1015.8 hPa 0 mm - 105 W/m² -
1788392659 30.56° C 27% 1015.8 hPa 0 mm - 101 W/m² -

* Rain latest hour (hover to see other rain measurements)
** Current wind speed in m/s (hover to see current wind gust speed)